KUIPER-00076

导读

KUIPER-00076是美国亚马逊柯伊伯(Kuiper)低轨宽带卫星星座中的一颗卫星,于2025年7月16日由美国发射升空。柯伊伯星座计划部署数千颗低轨卫星,旨在为全球提供高速卫星互联网接入服务,KUIPER-00076的入轨是该星座组网进程中的一步,将助力拓展全球网络覆盖范围,推动天地一体化网络建设。

基本信息
目录编号:
64823
目录名称:
KUIPER-00076
国际标识:
2025-151H
轨道中心:
EARTH
卫星名称:
KUIPER-00076
卫星全名:
KUIPER-00076
卫星状态:
在轨 (已飞行331 天)
发射日期:
2025-07-16 UTC
国别 :
美国 (US)
星等 :
--
轨道信息
数据来源 国际轨道数据 AOE轨道数据
星历时间 2026-06-11T19:59:22+0800
1天前
查看轨道信息
2026-06-11T06:00:00+0800
1天前
查看轨道信息
半长轴 7007.642km 7007.617km
偏心率 0.0000337 0.0000399
轨道倾角 51.900° 51.900°
近地点辐角 95.192° 125.422°
升交点赤经 238.268° 240.846°
平近点角 264.908° 7.294°
近地点 629.268km 629.2km
远地点 629.742km 629.76km
周期 97.301分钟 97.301分钟
每日圈数 14.79943 14.799509
详细信息
使用方式:
暂无
2D轨道图
3D轨道图
轨道高度分析图
轨道倾角分析图
轨道综合分析图
查看轨道综合分析图